Hourly Data Report for October 28, 2016

All times are specified in Local Standard Time (LST). Add 1 hour to adjust for Daylight Saving Time where and when it is observed.

QIKIQTARJUAQ A
NUNAVUT

67°32'48.000" N
64°01'54.000" W
5.50 m
2400577
YVM

Download Data

Hourly Data (October 2016)
Hourly Data Report for October 28, 2016
Temp Definition
°C
Dew Point Temp Definition
°C
Rel Hum Definition
%
Wind Dir Definition
10's deg

Wind Spd Definition
km/h
Visibility Definition
km
Stn Press Definition
kPa
Hmdx Definition


Wind Chill Definition


Weather Definition


TIME
00:00 Legend Double Dagger -2.4 -7.6 68 2 18 16.1 100.93   -8 LegendNANA
01:00 Legend Double Dagger -4.3 -8.4 73 6 9 16.1 101.00   -8 LegendNANA
02:00 Legend Double Dagger -3.3 -8.5 68 LegendMM 4 16.1 101.07   -5 LegendNANA
03:00 Legend Double Dagger -4.3 -8.9 71   0 16.1 101.11     LegendNANA
04:00 Legend Double Dagger -5.0 -8.4 77 14 11 16.1 101.12   -10 LegendNANA
05:00 Legend Double Dagger -4.7 -9.0 72 17 11 16.1 101.14   -9 LegendNANA
06:00 Legend Double Dagger -5.8 -9.8 73 18 11 16.1 101.16   -11 LegendNANA
07:00 Legend Double Dagger -4.5 -9.0 71 17 18 16.1 101.16   -11 LegendNANA
08:00 Legend Double Dagger -4.3 -8.8 71 17 21 16.1 101.15   -11 LegendNANA
09:00 Legend Double Dagger -4.7 -9.5 69 18 13 16.1 101.16   -10 LegendNANA
10:00 Legend Double Dagger -4.8 -10.6 64 19 11 16.1 101.18   -9 LegendNANA
11:00 Legend Double Dagger -4.9 -10.6 65 18 17 16.1 101.16   -11 LegendNANA
12:00 Legend Double Dagger -4.6 -10.2 65 19 8 16.1 101.15   -8 LegendNANA
13:00 Legend Double Dagger -3.5 -10.3 60 LegendMM 8 16.1 101.12   -7 LegendNANA
14:00 Legend Double Dagger -3.4 -9.9 61 12 11 16.1 101.11   -8 LegendNANA
15:00 Legend Double Dagger -3.1 -10.3 58 LegendMM 13 16.1 101.09   -8 LegendNANA
16:00 Legend Double Dagger -2.3 -10.6 53 18 24 16.1 101.05   -9 LegendNANA
17:00 Legend Double Dagger -3.5 -8.6 68 22 11 16.1 101.05   -8 LegendNANA
18:00 Legend Double Dagger -2.6 -9.0 62 11 18 16.1 101.01   -8 LegendNANA
19:00 Legend Double Dagger -2.1 -7.2 68 4 11 16.1 100.98   -6 LegendNANA
20:00 Legend Double Dagger -2.0 -8.6 61 17 26 16.1 100.91   -9 LegendNANA
21:00 Legend Double Dagger -1.3 -9.1 56 17 24 16.1 100.86   -7 LegendNANA
22:00 Legend Double Dagger -1.6 -9.0 57 17 22 16.1 100.81   -8 LegendNANA
23:00 Legend Double Dagger -1.7 -8.3 61 17 24 16.1 100.74   -8 LegendNANA

Notes on Data Quality.

Legend

  • E = Estimated
  • M = Missing
  • NA = Not Available
  • ‡ = Partner data that is not subject to review by the National Climate Archives
Date modified: